Printer-friendly version

IAU Minor Planet Center

Minor Planet Center

MPEC 2007-M43 : 2007 MB24

The following Minor Planet Electronic Circular may be linked-to from your own Web pages, but must not otherwise be redistributed electronically.


Read MPEC 2007-M42 Read MPEC 2007-M44


M.P.E.C. 2007-M43                                Issued 2007 June 26, 19:12 UT

     The Minor Planet Electronic Circulars contain information on unusual
         minor planets and routine data on comets.  They are published
   on behalf of Commission 20 of the International Astronomical Union by the
          Minor Planet Center, Smithsonian Astrophysical Observatory,
                          Cambridge, MA 02138, U.S.A.

             Prepared using the Tamkin Foundation Computer Network

                              MPC@CFA.HARVARD.EDU
          URL http://www.cfa.harvard.edu/iau/mpc.html  ISSN 1523-6714

                                   2007 MB24

Observations:
     K07M24B* C2007 06 24.32377 20 52 39.31 +30 45 36.2          17.7   EM043704
     K07M24B  C2007 06 24.33428 20 52 30.43 +30 46 09.4          18.1   EM043704
     K07M24B  C2007 06 24.34469 20 52 21.75 +30 46 41.9          18.0   EM043704
     K07M24B  C2007 06 24.88084 20 45 06.47 +31 12 47.1          17.5 R EM043473
     K07M24B  C2007 06 24.88302 20 45 04.67 +31 12 53.5          17.6 R EM043473
     K07M24B  C2007 06 24.88973 20 44 59.29 +31 13 12.7          18.0 R EM043473
     K07M24B  C2007 06 24.89842 20 44 52.21 +31 13 37.7          17.6 R EM043473
     K07M24B  C2007 06 24.90060 20 44 50.47 +31 13 44.1          17.3 R EM043473
     K07M24B  C2007 06 24.92584 20 44 30.10 +31 14 56.1          18.2 V EM043595
     K07M24B  C2007 06 24.92850 20 44 27.99 +31 15 03.4          17.9 V EM043595
     K07M24B  C2007 06 24.93118 20 44 25.81 +31 15 11.2          18.0 V EM043595
     K07M24B  C2007 06 24.93539 20 44 22.30 +31 15 21.4          17.5 R EM043118
     K07M24B  C2007 06 24.94080 20 44 18.00 +31 15 37.2          17.6 R EM043118
     K07M24B  C2007 06 24.94188 20 44 17.07 +31 15 40.0          17.6 R EM043118
     K07M24B  C2007 06 24.94196 20 44 17.27 +31 15 40.7          17.2 R EM043A24
     K07M24B  C2007 06 24.94277 20 44 16.63 +31 15 43.2          17.1 R EM043A24
     K07M24B  C2007 06 24.94358 20 44 15.98 +31 15 45.2          17.2 R EM043A24
     K07M24B  C2007 06 24.94399 20 44 15.65 +31 15 46.5          17.4 R EM043A24
     K07M24B  C2007 06 24.94439 20 44 15.33 +31 15 47.6          17.2 R EM043A24
     K07M24B  C2007 06 24.94479 20 44 14.98 +31 15 48.8          17.2 R EM043A24
     K07M24B  C2007 06 24.94520 20 44 14.65 +31 15 49.8          17.2 R EM043A24
     K07M24B  C2007 06 24.94561 20 44 14.33 +31 15 50.8          17.6 R EM043A24
     K07M24B  C2007 06 24.94601 20 44 14.01 +31 15 51.7          17.6 R EM043A24
     K07M24B  C2007 06 24.94642 20 44 13.69 +31 15 53.2          17.4 R EM043A24
     K07M24B  C2007 06 24.94885 20 44 11.75 +31 16 00.0          17.4 R EM043A24
     K07M24B  C2007 06 24.94926 20 44 11.44 +31 16 01.5          17.5 R EM043A24
     K07M24B  C2007 06 24.94966 20 44 11.07 +31 16 02.2          17.5 R EM043A24
     K07M24B  C2007 06 25.18015 20 41 08.25 +31 26 23.5          17.7 R EM043932
     K07M24B  C2007 06 25.20400 20 40 49.23 +31 27 27.0          17.9 R EM043932
     K07M24B  C2007 06 25.21017 20 40 44.31 +31 27 43.3          17.8 R EM043932
     K07M24B  C2007 06 25.25376 20 40 10.81 +31 29 38.0          17.0 R EM043854
     K07M24B  C2007 06 25.25671 20 40 08.47 +31 29 45.2          17.4 R EM043854
     K07M24B  C2007 06 25.25966 20 40 06.11 +31 29 53.7          17.9 R EM043854
     K07M24B  C2007 06 26.13025 20 29 00.05 +32 03 51.4          18.0 R EM043932
     K07M24B  C2007 06 26.15101 20 28 44.43 +32 04 36.6          17.9 R EM043932
     K07M24B  C2007 06 26.16417 20 28 34.57 +32 05 05.9          18.1 R EM043932
     K07M24B 5C2007 06 26.24861 20 27 32.38 +32 08 03.1          17.5 R EM043673
     K07M24B 5C2007 06 26.25660 20 27 26.42 +32 08 19.8                 EM043673
     K07M24B 5C2007 06 26.26238 20 27 22.10 +32 08 32.7                 EM043673
     K07M24B 5C2007 06 26.29051 20 27 01.11 +32 09 32.6                 EM043673
     K07M24B 2C2007 06 26.40780 20 25 33.03 +32 13 34.8          17.3 R EM043H06
     K07M24B 2C2007 06 26.41341 20 25 28.81 +32 13 46.2          17.2 R EM043H06
     K07M24B 2C2007 06 26.41900 20 25 24.64 +32 13 57.3          18.0 R EM043H06

Observer details:
118 Modra.  Observer S. Gajdos.  0.6-m f/5.5 reflector + CCD.
473 Remanzacco.  Observers L. Donato, M. Gonano, V. Gonano, E. Guido,
    V. Santini, G. Sostero.  0.45-m f/4.4 Newtonian reflector + CCD.
595 Farra d'Isonzo.  Observers G. Lombardi, F. Piani, F. Fabris.  Measurers
    G. Lombardi, F. Fabris.  0.40-m f/4.5 reflector + CCD.
673 Table Mountain Observatory, Wrightwood.  Observer J. Young.  0.61-m f/16
    Cassegrain + CCD.
704 Lincoln Laboratory ETS, New Mexico.  Observers M. Bezpalko, D. Torres,
    R. Kracke, G. Spitz, J. Kistler.  Measurers J. Stuart, S. Scruggs.  1.0-m
    f/2.15 reflector + CCD.
854 Sabino Canyon Observatory, Tucson.  Observer J. E. McGaha.  0.36-m f/10.0
    Schmidt-Cassegrain + CCD.
932 John J. McCarthy Obs., New Milford.  Observer S. Riley.  0.4-m f/6.5
    Schmidt-Cassegrain + CCD.
A24 New Millennium Observatory, Mozzate.  Observer E. Cozzi.  0.36-m f/7.6
    Schmidt-Cassegrain + CCD.
H06 RAS Observatory, Mayhill.  Observer R. Hutsebaut.  0.25-m reflector + CCD.

Orbital elements:
2007 MB24                                           PHA, Earth MOID = 0.0297 AU
Epoch 2007 Apr. 10.0 TT = JDT 2454200.5                 MPC
M 353.70340              (2000.0)            P               Q
n   0.39028250     Peri.  268.94588     -0.67573171     +0.00929107
a   1.8544566      Node   271.24461     +0.29663002     -0.91196290
e   0.6964834      Incl.   47.49879     -0.67483130     -0.41016747
P   2.53           H   18.6           G   0.15           U   9
Residuals in seconds of arc
070624 704  0.5+  0.1+    070624 A24  0.2+  0.4+    070625 854  0.2+  0.1+
070624 704  0.4-  0.1+    070624 A24  0.3+  0.1+    070625 854  0.2+  0.6-
070624 704  0.2+  0.2-    070624 A24  0.3+  0.3+    070625 854  0.1-  0.1+
070624 473  0.1+  0.4-    070624 A24  0.3+  0.2+    070626 932  0.2-  0.5-
070624 473  0.5-  0.3-    070624 A24  0.0   0.3+    070626 932  0.4-  0.7-
070624 473  0.1-  0.3-    070624 A24  0.0   0.1+    070626 932  0.1+  0.1-
070624 473  1.0-  0.1-    070624 A24  0.1+  0.0     070626 673  0.0   0.1-
070624 473  0.8-  0.1+    070624 A24  0.1+  0.2-    070626 673  0.0   0.5-
070624 595  0.9-  0.4+    070624 A24  0.3+  0.1+    070626 673  0.0   0.0
070624 595  0.4-  0.2+    070624 A24  0.5+  0.1+    070626 673  0.3+  0.1+
070624 595  0.6-  0.4+    070624 A24  0.8+  0.4+    070626 H06  0.4+  0.4+
070624 118  0.2-  0.6-    070624 A24  0.2+  0.0     070626 H06  0.1-  0.7+
070624 118  0.6+  0.0     070625 932  0.0   0.2-    070626 H06  0.1-  0.8+
070624 118  0.1-  0.2-    070625 932  0.0   0.4-
070624 A24  0.1+  0.2+    070625 932  0.0   0.5-

Ephemeris:
2007 MB24                a,e,i = 1.85, 0.70, 47                  q = 0.5629
Date    TT    R. A. (2000) Decl.     Delta      r     Elong.  Phase     V
2007 06 19    22 14.29   +23 27.0    0.211    1.074   100.2    68.6    17.8
2007 06 29    19 56.45   +33 16.0    0.298    1.193   119.8    47.7    18.2
2007 07 09    18 43.46   +33 07.3    0.432    1.308   124.1    40.1    18.9
2007 07 19    18 08.40   +30 50.9    0.584    1.419   122.6    37.1    19.7
2007 07 29    17 51.76   +28 16.6    0.747    1.525   119.1    35.6    20.3
2007 08 08    17 45.03   +25 47.8    0.915    1.626   114.8    34.5    20.9
2007 08 18    17 44.32   +23 29.9    1.089    1.722   110.1    33.5    21.4
2007 08 28    17 47.64   +21 25.2    1.265    1.814   105.2    32.5    21.8

Gareth V. Williams           (C) Copyright 2007 MPC           M.P.E.C. 2007-M43

Read MPEC 2007-M42 Read MPEC 2007-M44


Our Web policy. Index to the CBAT/MPC/ICQ pages.


Valid HTML 4.01!